www.pogodaiklimat.ru

Погода и климат >> Архив погоды >> Гана >> Ва


ПОГОДА в Ва

  • Прогноз погоды в Ва
  • Монитор погоды в Ва

АРХИВ ПОГОДЫ в Ва

Время (UTC), дата Ветер
(напр.,м/с)
 
Видим.   Явления Облачность Т
(С)
Тd
(С)
f
(%)
Тe
(С)
Тes
(С)
Комфортность P
(гПа)
Po
(гПа)
Тmin
(С)
Tmax
(С)
R
(мм)
R24
(мм)
S
(см)
00 15.09 ЮЗ 2 8000 м гроза, ливневой дождь 9/8 360 м
[Cb cap Ac As]
+23.0 +22.3 96 +31 +31 очень
душно
1014.0 976.9 9
06 15.09 ЮЗ 2 12 км {гроза, дождь} 9/6 360 м
[Sc Ac trans]
+22.5 +21.8 96 +30 +30 очень
душно
1013.5 976.4 +22.0 13
09 15.09 штиль 0 12 км 9/0
[Ac trans]
+25.0 +21.5 81 +32 +38 очень
душно
1013.7 976.9
12 15.09 ЮВ 3 12 км 9/8 360 м
[Sc Ac trans]
+28.0 +21.7 69 +36 +39 очень
душно
1012.7 976.3
15 15.09 ЮЗ 5 12 км в посл. час дождь 9/6 360 м
[Sc Ac trans]
+22.0 +21.3 96 +29 +30 очень
душно
1014.8 977.5
18 15.09 СВ 2 12 км {дождь} 9/4 360 м
[Sc Ac trans]
+24.0 +20.4 80 +30 +30 очень
душно
1011.5 974.6 +29.0 1
21 15.09 штиль 0 12 км 9/5 360 м
[Sc Ac trans]
+23.2 +21.1 88 +31 +31 очень
душно
1012.2 975.2
00 16.09 штиль 0 12 км 9/0
[Ac trans Cs]
+22.5 +21.1 92 +30 +30 очень
душно
1013.5 976.4
03 16.09 ЮЗ 1 12 км 9/9 330 м
[Sc]
+25.0 +20.3 75 +31 +31 очень
душно
1012.3 975.5
06 16.09 штиль 0 12 км 9/3 480 м
[Sc Ac trans Cs]
+22.1 +21.2 95 +29 +29 очень
душно
1013.3 976.1 +21.0
09 16.09 штиль 0 12 км 9/5 360 м
[Sc Ac trans]
+25.5 +21.5 79 +33 +36 очень
душно
1014.8 978.0
12 16.09 ЮЗ 3 12 км 9/4 360 м
[Cu Sc Ac trans]
+29.5 +23.3 69 +40 +46 очень
душно
1012.1 975.9
15 16.09 ЮЗ 2 12 км 8/8 400 м
[Cu Sc]
+31.1 +23.6 64 +42 +44 опасность
перегрева
1010.2 974.2
18 16.09 ЮЗ 2 12 км 5/4 450 м
[Cb cap Ci sp]
+29.7 +23.3 69 +40 +40 очень
душно
1009.7 973.6 +31.1
21 16.09 штиль 0 12 км 5/0
[Ci sp]
+27.5 +23.4 78 +37 +37 очень
душно
1012.2 975.7
00 17.09 ЮЗ 2 12 км 8/6 360 м
[Sc Ci sp]
+26.5 +23.5 84 +36 +36 очень
душно
1012.8 976.2
03 17.09 штиль 0 12 км 9/9 360 м
[Sc]
+25.5 +23.4 88 +34 +34 очень
душно
1011.6 974.9
06 17.09 ЮЗ 2 12 км 9/0
[Ac trans]
+24.5 +23.1 92 +33 +33 очень
душно
1011.9 975.1 +23.0
09 17.09 ЮЗ 3 12 км 8/8 360 м
[Cu Sc]
+27.0 +24.3 85 +38 +39 очень
душно
1013.7 977.1
12 17.09 ЮЗ 3 12 км 8/8 360 м
[Cu Sc]
+28.0 +23.9 78 +39 +42 очень
душно
1012.7 976.3
15 17.09 ЮВ 5 12 км слаб. дождь 9/9 330 м
[Cb cap]
+23.0 +21.6 92 +31 +31 очень
душно
1012.5 975.5
00 18.09 штиль 0 12 км 9/9 330 м
[Sc]
+22.4 +22.0 98 +30 +30 очень
душно
1014.5 977.3
03 18.09 ЮЗ 2 4000 м дымка 9/6 330 м
[Sc Ac trans]
+22.4 +22.0 98 +30 +30 очень
душно
1012.5 975.4
09 18.09 ЮЗ 1 12 км 9/6 360 м
[Cu Sc Ac trans]
+25.0 +22.9 88 +33 +36 очень
душно
1015.1 978.2
12 18.09 ЮЗ 2 12 км 9/9 360 м
[Cu Sc]
+26.5 +23.7 85 +36 +39 очень
душно
1013.9 977.2
15 18.09 СВ 2 12 км 9/4 480 м
[Cu med, cong Ac trans]
+31.0 +24.2 67 +43 +47 опасность
перегрева
1010.6 974.6
18 18.09 СВ 2 12 км 9/6 360 м
[Cb cap Ac trans]
+28.5 +23.0 72 +38 +38 очень
душно
1013.0 976.6 +31.2
21 18.09 ЮЗ 2 12 км 4/0
[Ci sp]
+26.7 +24.4 87 +37 +37 очень
душно
1013.0 976.4
03 19.09 ЮЗ 2 12 км 9/0
[Ac trans]
+24.5 +23.1 92 +33 +33 очень
душно
1012.5 975.6
09 19.09 ЮВ 2 3000 м дождь {гроза} 9/6 300 м
[Sc Ac As]
+21.0 +19.5 91 +27 +29 душно 1013.2 975.9
12 19.09 ЮВ 2 12 км {гроза, дождь} 9/3 360 м
[Sc Cs]
+25.0 +22.2 84 +32 +46 очень
душно
1013.2 976.4 15
15 19.09 ЮВ 2 12 км 9/0
[Ac trans]
+29.5 +22.1 64 +38 +44 очень
душно
1010.0 973.8
21 19.09 штиль 0 12 км зарница 6/6 360 м
[Cb cap Ac trans]
+25.0 +22.9 88 +33 +33 очень
душно
1012.8 976.0
00 20.09 штиль 0 12 км 6/0
[Ac trans]
+25.0 +22.2 84 +32 +32 очень
душно
1013.8 977.0
03 20.09 ЮЗ 2 12 км 9/0
[Ac trans]
+24.5 +23.1 92 +33 +33 очень
душно
1012.5 975.6
06 20.09 ЮВ 2 12 км 9/6 360 м
[Cb cap Ac trans]
+24.0 +22.6 92 +31 +31 очень
душно
1013.4 976.4 +23.0
09 20.09 В 2 12 км в посл. час дождь 9/6 360 м
[Sc Ac trans]
+25.0 +24.3 96 +35 +37 очень
душно
1015.2 978.3
12 20.09 В 5 12 км {дождь} 9/8 360 м
[Cu Sc Ac trans]
+30.2 +24.5 72 +43 +44 опасность
перегрева
1014.4 978.2 3
15 20.09 ЮЗ 5 12 км 8/6 360 м
[Cu Sc]
+31.5 +23.3 62 +42 +44 опасность
перегрева
1010.3 974.3
21 20.09 ЮВ 1 12 км 9/0
[Ac trans]
+27.9 +23.9 79 +39 +39 очень
душно
1012.8 976.3
00 21.09 штиль 0 12 км 9/0 300 м
[Ac trans]
+27.0 +24.3 85 +38 +38 очень
душно
1013.4 976.8
03 21.09 штиль 0 3600 м 8/0
[Ac trans]
+25.7 +24.1 91 +36 +36 очень
душно
1012.1 975.4
09 21.09 ЮЗ 2 12 км 8/8 360 м
[Cu Sc]
+26.9 +23.8 83 +37 +39 очень
душно
1015.4 978.7
12 21.09 ЮЗ 1 12 км 8/6 360 м
[Cu Sc Ci sp]
+30.7 +25.2 73 +45 +54 опасность
перегрева
1013.5 977.3
15 21.09 ЮЗ 2 12 км 8/8 400 м
[Cu Sc]
+32.2 +24.1 62 +44 +46 опасность
перегрева
1011.5 975.6

 

Местоположение метеостанции Ва (Гана): широта 10.05 долгота -2.50 высота над уровнем моря 323 м.

В архиве по умолчанию представлена погода в Ва за последнюю неделю. Архивные данные за месяц целиком и за предыдущие месяцы, начиная с января 2011 года, Вы можете получить, выбрав интересующий диапазон дат из раскрывающегося списка и нажав кнопку "Ввод!".


*Определитесь, кто Вы:
робот инопланетянин человек

Внимание! Время в таблицах - всемирное. Для получения местного времени необходимо прибавить поправку, которая равна 1 ч.

Смотрите также архив погоды в соседних городах и на ближайших метеорологических станциях:

Погода в Гауа (Буркина-Фасо) (81 км)
Погода в Боле (Гана) (113 км)
Погода в Навронго (Гана) (180 км)
Погода в Тамале (Гана) (191 км)
Погода в По (Буркина-Фасо) (192 км)
Погода в Боромо (Буркина-Фасо) (195 км)
Погода в Бондуку (Кот-д'Ивуар) (225 км)
Погода в Бобо-Диуласо (Буркина-Фасо) (235 км)
Погода в Уэнчи (Гана) (260 км)
Погода в Уагадугу (Буркина-Фасо) (277 км)

Пояснения к столбцам:

Ветер - указаны скорость ветра в м/с - средняя за 10 мин, порывы в срок и между сроками (в фигурных скобках) и направление, откуда дует ветер: С - северный, СВ - северо-восточный, В - восточный, ЮВ - юго-восточный, Ю - южный, ЮЗ - юго-западный, З - западный, СЗ - северо-западный.
Видимость - горизонтальная дальность видимости в метрах или километрах. При видимости от 1 до 10 км при отсутствии осадков обычно наблюдается дымка, при ухудшении видимости до 1 км и менее - туман. В сухую погоду видимость может ухудшаться дымом, пылью или мглою.
Явления - указаны атмосферные явления, наблюдавшиеся в срок или в последний час перед сроком; фигурными скобками обозначены явления, наблюдавшиеся между сроками (за 1-3 часа до срока); квадратными скобками обозначены град или гололедные отложения с указанием их диаметра в мм.
Облачность - указаны через наклонную черту общая и нижняя облачность в баллах и высота нижней границы облаков в метрах; квадратными скобками обозначены формы облаков: Ci - перистые, Cs - перисто-слоистые, Cc - перисто-кучевые, Ac - высококучевые, As - высокослоистые, Sc - слоисто-кучевые, Ns - слоисто-дождевые, Cu - кучевые, Cb - кучево-дождевые. Подробнее классификацию облаков см. в Атласе облаков (PDF).
T - Температура воздуха - температура, измеренная на высоте 2 м над землей.
Td - Температура точки росы - температура, при понижении до которой содержащийся в воздухе водяной пар достигнет насыщения.
f - Относительная влажность воздуха - влажноcть воздуха, измеренная на высоте 2 м над землей.
Te - Эффективная температура - температура, которую ощущает одетый по сезону человек в тени. Характеристика душности погоды. При расчете учитывается влияние влажности воздуха и скорости ветра на теплоощущения человека.
Tes - Эффективная температура на солнце - температура, которую ощущает человек, с поправкой на солнечный нагрев. Характеристика знойности погоды. Зависит от высоты солнца над горизонтом, облачности и скорости ветра. Ночью, в пасмурную погоду, а также при ветре 12 м/с и более поправка равна нулю.
P - Атмосферное давление - приведенное к уровню моря атмосферное давление.
Po - Атмосферное давление - измеренное на уровне метеостанции атмосферное давление.
Tmin - Минимальная температура - минимум температуры воздуха на высоте 2 м над землей.
Tmax - Максимальная температура - максимум температуры воздуха на высоте 2 м над землей.
R - Количество осадков - Количество выпавших осадков за период времени, мм. При наведении курсора мыши на число - период времени, за который выпало указанное количество осадков.
R24 - Количество осадков - Количество выпавших осадков за 24 часа, мм.
S - Снежный покров - Высота снежного покрова, см. При наведении курсора мыши на число - состояние снежного покрова и степень покрытия местности в баллах.